BREEZE-M R/B, 41311

Orbit data source: Space-Track

BREEZE-M R/B, 41311 is space debris in HEO originally from a launch on Fri, 29 Jan 2016 UTC launched from the Tyuratam Missile And Space Complex (TTMTR). Debris objects in space refer to the collection of defunct objects orbiting the Earth. Examples of debris include non-operational satellites, rocket bodies, and fragments generated from explosions, collisions, or faulty payload assembly.

Loading next visibility...
Identifier
41311, 2016-005B
Orbit
HEO
Country
Flag of CISCIS
Related business
Manufacturer
Khrunichev
Mission
Spacecraft
Bus & Motor
BRIZ, Unknown motor
Mass
~1,600 kg wet, 1,600 kg dry
Launch date (UTC)
2016-01-29 (10 years ago)
Launch vehicle
Unknown
Launch site
Tyuratam Missile And Space Complex (TTMTR)
Object type
Payload
Rocket body
Debris
Shape & HBR
Cyl, 2.0 m
Radar Cross Section
15.135 m², Large (>1 m²)

Expand to show TLE details & history
Last TLE update: 2 days ago

TLE from 2 days ago
0 BREEZE-M R/B
1 41311U 16005B   26171.09983163 -.00000122  00000-0  00000+0 0  9993
2 41311  12.3985  95.4062 5972660 336.4215   4.9043  2.17162282 82400
Epoch: 2026-06-20T02:23Z
TLE epoch observation values (Epoch: 2026-06-20T02:23:45.452Z)
Latitude
-0.0002°
Longitude
151.0819°
Altitude
4,072.906 km
Speed
7.775 km/s
True Right ascension
06h 21m 21s
True Declination
0° 00' 01"
Sunlit
Object was in daylight at epoch
Visualization orbit readout
Latitude
Unknown
Longitude
Unknown
Altitude
Unknown
Speed
Unknown
Apparent Right ascension
Unknown
Apparent Declination
Unknown
Sunlit
N/A
Visualization observer readout
Local Sidereal Time
21:37:02
Azimuth
Unknown
Elevation
Unknown
Doppler factor
Unknown
Orbital elements
Apogee altitude
33,860.582 km
Perigee altitude
3,767.637 km
Semi-major axis
25,192.247 km
Eccentricity
0.59727
Inclination
12.3985°
RAAN
95.4062°
Arg. of periapsis
336.4215°
True anomaly
23.73343°
Mean anomaly
4.9043°
Eccentric anomaly
12.04619°
Mean motion
0.5428 °/min
Orbital period
663.22 mins
BSTAR
0
Loading maneuver chart data...
Computing Atmospheric mass density...
Loading historical data...
Loading historical data...
Loading historical data...
Loading historical data...
Loading historical data...
Loading historical data...
Loading historical data...
Other satellites on launch #5 in the year 2016 (2016-01-29 UTC)

Documentation

Showing up to 5 results
|